Charter Quote
Worldwide +1-877-727-2538 Call
Select Language Lang
SAFETY RELIABILITY EXPERIENCE

Private Jet Charter Services - Baiyun Intl (ZGGG)

Paramount Business Jets offers private jet charter flights and luxury airliner charters to and from Baiyun Intl.

AIRPORT INFORMATION
ICAOZGGG
IATACAN
LOCATIONGuangzhou, China
FACILITY TYPEAIRPORT

At Paramount Business Jets you can hire chartered private jets to and from Baiyun Intl with as little as 4 hours of notice. All flights booked via Paramount Business Jets are operated by certified direct air carriers that meet and exceed the FAA part 135 and 121 protocol or a foreign equivalent safety authority. Furthermore, Paramount Business Jets subscribes to ARGUS for their third party safety checks of operators, aircraft, and crews prior each and every flight to and from Baiyun Intl and worldwide.

  • Quote a trip using Baiyun Intl or call us 24/7 - 365 days a year at +1-877-727-2538.
Questions? Call +1-877-727-2538

METAR Weather Data at Baiyun Intl, ZGGG, CAN

STATIONZGGG
OBSERVEDTue Dec 10, 04:30 UTC
NOWTue Dec 10, 05:02 UTC
AGE32 min ago
WINDvaries at 2 mph
VISIBILITYgreater than 7 miles
CLOUDSclear skies
TEMP70°F (21°C)
DEWPT32°F (0°C)
HUMIDITY25%
BAROMETER1019 hPa (30.09 in Hg)
METARZGGG 100430Z VRB01MPS CAVOK 21/M00 Q1019 NOSIG

Call us on +1-877-727-2538 (24 Hours) to Hire a Private Jet or Get a Quick Quote.

Find Airports Near any Location

Processing
...